User: anonymous   Login
Location: Plymouth
(43.7570°N, 71.6890°W)
Time: 05:47:31
(UTC-04:00)
Language:

Cosmos 2016 Rocket - Orbit

View from above orbital plane
View from above orbital plane
View from above satellite
View from above satellite

Ground track
Ground track

The orbit data is extracted from the following two-line orbital elements,

1 19922U 89028B   15212.16685838  .00000083  00000-0  67896-4 0  9997
2 19922 082.9570 216.4033 0036778 012.4855 040.5254 13.77150954322673
Epoch (UTC): 31 July 2015 04:00:16
Eccentricity: 0.0036778
inclination: 82.9570°
perigee height: 947 km
apogee height: 1001 km
right ascension of ascending node: 216.4033°
argument of perigee: 12.4855°
revolutions per day: 13.77150954
mean anomaly at epoch: 40.5254°
orbit number at epoch: 32267

The dashed part of the orbit path shows where the satellite is in the earth's shadow,  

DLR